Regional Weather Roundup
Issued by NWS

Home | Current Version | Previous Version | Graphics & Text | Print | Product List | Glossary On
Versions: 1 2 3 4 5 6 7 8 9 10 11 12 13 14 15 16 17 18 19 20 21 22 23 24 25 26 27 28 29 30 31 32 33 34 35 36 37 38 39 40 41 42 43 44 45 46 47 48 49 50
000
ASUS43 KMPX 260710
RWRMN
WEATHER ROUNDUP FOR MINNESOTA
NATIONAL WEATHER SERVICE TWIN CITIES/CHANHASSEN MN
200 AM CDT SUN APR 26 2015


NOTE: "FAIR" INDICATES FEW OR NO CLOUDS BELOW 12,000 FEET WITH NO
SIGNIFICANT WEATHER AND/OR OBSTRUCTIONS TO VISIBILITY. N/A MEANS
CURRENT SKY AND/OR WEATHER CONDITIONS ARE NOT AVAILABLE.

MNZ060>063-068>070-260800-
   Twin Cities Metro

CITY           SKY/WX    TMP DP  RH WIND       PRES   REMARKS
TWIN CITIES    CLEAR     42  21  43 NE6       30.01R
ST PAUL        CLEAR     43  20  39 NE6       30.02R
CRYSTAL        CLEAR     40  21  46 N5        30.01R
BLAINE         CLEAR     39  21  48 N6        30.02R
LAKEVILLE      CLEAR     39  27  60 NE5       30.00R
EDEN PRAIRIE   CLEAR     44  19  36 NE10      29.99R
SOUTH ST PAUL  CLEAR     44  21  40 NE6       30.01R
LAKE ELMO      FAIR      41  21  45 NE5       30.02S
$$
MNZ001>005-007-008-013>017-022>024-027-028-260800-
   Northwest Minnesota

CITY           SKY/WX    TMP DP  RH WIND       PRES   REMARKS
BEMIDJI        CLEAR     36  27  68 SE5       30.05R
HALLOCK        CLEAR     48  27  43 SE12      30.02R
ROSEAU         CLEAR     39  30  70 E5        30.04S
WARROAD        CLEAR     36  32  87 E3        30.06S
THIEF RVR FALL CLEAR     43  28  56 E5        30.03R
CROOKSTON      CLEAR     39  28  65 E5        30.03R
FOSSTON        CLEAR     36  27  69 E3        30.02S
DETROIT LAKES  CLEAR     43  27  52 SE7       30.04R
MOORHEAD       CLEAR     39  28  65 CALM      30.03R
PARK RAPIDS    CLEAR     41  13  31 E8        30.03R
MAHNOMEN       FAIR      39  29  65 SE7       30.02R
$$
MNZ006-009>011-018-025>026-260800-
   North Central Minnesota

CITY           SKY/WX    TMP DP  RH WIND       PRES   REMARKS
BAUDETTE       CLEAR     36  29  75 E5        30.06R
FLAG ISLAND    CLEAR     45  27  49 E6        30.06R
INTL FALLS     CLEAR     32  23  69 CALM      30.07R
WASKISH        CLEAR     34  27  75 CALM      30.06R
BIG FORK       CLEAR     30  19  64 CALM      30.07S
LONGVILLE      CLEAR     28  19  69 CALM      30.05S
GRAND RAPIDS   CLEAR     28  12  50 CALM      30.06S
CRANE LAKE     CLEAR     25  21  86 CALM      30.11R
ORR            CLEAR     28  18  64 CALM      30.06R
COOK           CLEAR     27  19  74 CALM      30.08S
WALKER         FAIR      38  20  47 E3        30.05R
$$
MNZ012-019>021-037-260800-
   Northeast Minnesota

CITY           SKY/WX    TMP DP  RH WIND       PRES   REMARKS
DULUTH         CLEAR     34  13  41 CALM      30.05S
ELY            CLEAR     25  18  74 CALM      30.08S
HIBBING        CLEAR     25  16  68 NW3       30.07R
EVELETH        CLEAR     28  21  74 NE3       30.08S
DULUTH HARBOR  CLEAR     36  28  75 NE5       30.09S
TWO HARBORS    CLEAR     36  18  48 N5        30.05S
SILVER BAY     CLEAR     25  18  74 CALM      30.06S
GRAND MARAIS     N/A     32  19  58 CALM      30.08S
G MARAIS ARPRT CLEAR     23  16  74 N8        30.07S WCI  14
$$
MNZ029>031-032-039>041-046>048-054>057-064-260800-
   West Central Minnesota

CITY           SKY/WX    TMP DP  RH WIND       PRES   REMARKS
FERGUS FALLS   CLEAR     45  27  49 E6        30.04R
WHEATON        CLEAR     34  28  80 E7        30.03R WCI  28
MORRIS         CLEAR     39  30  70 SE8       30.02R
ALEXANDRIA     CLEAR     40  20  44 E10       30.03R
ELBOW LAKE     FAIR      43  27  53 E10       30.01S
WADENA         CLEAR     36  21  55 CALM      30.04R
GLENWOOD       CLEAR     36  27  69 NE7       30.03R
APPLETON       CLEAR     37  32  81 E6        30.01R
BENSON         CLEAR     43  28  56 E7        30.01S
ORTONVILLE     CLEAR     41  32  70 E10       30.00S
MADISON        CLEAR     37  32  81 E8        30.00S
WILLMAR        FAIR      43  28  56 NE12      30.02R
$$
MNZ033>034-036-042>043-049>051-058-059-260800-
   Central Minnesota

CITY           SKY/WX    TMP DP  RH WIND       PRES   REMARKS
ST CLOUD       CLEAR     36  20  52 NE6       30.03R
SAUK CENTRE    FAIR      38  19  47 E7        30.04R
PAYNESVILLE    CLEAR     36  23  61 N6        30.03R
AITKIN         CLEAR     34  10  37 NE3       30.04R
PINE RIVER     CLEAR     37  14  38 CALM      30.08S
BRAINERD       CLEAR     34  11  38 CALM      30.05R
STAPLES        CLEAR     37   7  28 CALM      30.04S
LONG PRAIRIE   FAIR      36  19  51 NE6       30.04R
LITTLE FALLS   CLEAR     32  14  47 CALM      30.05R
LITCHFIELD     CLEAR     39  27  60 NE6       30.02R
BUFFALO        CLEAR     39  22  51 NE8       30.03R
MAPLE LAKE     CLEAR     38  24  57 NE3       30.03R
$$
MNZ037-044-045-052-053-260800-
   East Central Minnesota

CITY           SKY/WX    TMP DP  RH WIND       PRES   REMARKS
PRINCETON      CLEAR     37  23  56 NE5       30.04S
MORA           CLEAR     32  19  59 CALM      30.06S
CAMBRIDGE      CLEAR     37  25  60 N3        30.02S
RUSH CITY      CLEAR     32  24  73 NE5       30.05R WCI  27
MOOSE LAKE     CLEAR     32  21  64 CALM      30.04S
HINCKLEY       FAIR      32  23  69 N3        30.06R
CLOQUET        CLEAR     28  18  64 CALM      30.05F
MCGREGOR       CLEAR     32  19  59 CALM      30.06R
$$
MNZ071>073-080-081-089-090-097-098-260800-
   Southwest Minnesota

CITY           SKY/WX    TMP DP  RH WIND       PRES   REMARKS
MONTEVIDEO     CLEAR     37  32  81 SE7       30.02R
GRANITE FALLS  CLEAR     42  32  67 CALM      30.02R
CANBY          CLEAR     39  37  92 CALM      30.00S
MARSHALL       PTCLDY    39  34  81 CALM      29.99R
REDWOOD FALLS  CLEAR     43  31  62 NE5       29.99R
OLIVIA         CLEAR     37  28  70 NE7       29.99S
PIPESTONE      PTCLDY    39  36  87 E3        29.97S
WINDOM         CLEAR     34  30  86 CALM      29.97S
WORTHINGTON    CLEAR     36  30  80 NW5       29.98R
JACKSON        PTCLDY    36  34  93 CALM      29.97S FOG
TRACY          CLEAR     38  34  84 N3        30.00R
SLAYTON        CLEAR     34  32  94 CALM      29.99R
$$
MNZ065>067-074>077-082>085-091>093-260800-
   South Central Minnesota

CITY           SKY/WX    TMP DP  RH WIND       PRES   REMARKS
MANKATO        CLEAR     45  30  57 NE8       29.98R
NEW ULM        CLEAR     43  30  61 NE5       29.99R
ST JAMES       CLEAR     37  36  93 CALM      29.99S
FAIRMONT       CLEAR     37  34  87 NW5       29.96R
GLENCOE        CLEAR     41  29  62 N7        29.99S
FARIBAULT      CLEAR     39  30  70 N5        29.99R
OWATONNA       CLEAR     34  30  86 CALM      29.97S
WASECA         CLEAR     37  32  81 N7        29.98S
ALBERT LEA     CLEAR     36  36 100 CALM      29.97R FOG
$$
MNZ078>079-086>088-094>096-260800-
   Southeast Minnesota

CITY           SKY/WX    TMP DP  RH WIND       PRES   REMARKS
ROCHESTER      CLEAR     40  26  57 NE5       29.98R
RED WING       CLEAR     43  23  45 SE3       29.99R
STANTON        CLEAR     39  29  69 NE7       29.98R
DODGE CENTER   PTCLDY    37  34  87 NE3       29.97S
WINONA         CLEAR     36  32  87 CALM      30.00R
AUSTIN         CLEAR     34  32  93 CALM      29.96S
PRESTON        CLEAR     39  25  56 E6        29.98R
$$
ABBREVIATIONS USED IN REMARKS
   TC - TEMPERATURES IN CELSIUS
  WCI - WIND CHILL INDEX
   HX - HEAT INDEX
  VSB - VISIBILITY
$$


USA.gov is the U.S. government's official web portal to all federal, state and local government web resources and services.